Tracking 27086 objects as of 22-Mar-2023
HD Live streaming from Space Station
objects crossing your sky now

STARLINK-3896

Track STARLINK-3896 now!
10-day predictions
STARLINK-3896 is classified as:


NORAD ID: 52456
Int'l Code: 2022-049F
Perigee: 546.0 km
Apogee: 547.8 km
Inclination: 53.2 °
Period: 95.4 minutes
Semi major axis: 6917 km
RCS: Unknown
Launch date: May 6, 2022
Source: United States (US)
Launch site: AIR FORCE EASTERN TEST RANGE (AFETR)
Your satellite tracking list
Your tracking list is empty




NASA's NSSDC Master Catalog

Two Line Element Set (TLE):
1 52456U 22049F   23080.48067350  .00000951  00000-0  77817-4 0  9994
2 52456  53.2152 256.3259 0001290  81.0399 279.0739 15.08836621 48432
Source of the keplerian elements: AFSPC